Regional Weather Roundup
Issued by NWS Boston, MA

Current Version | Previous Version | Text Only | Print | Product List | Glossary Off
Versions: 1 2 3 4 5 6 7 8 9 10 11 12 13 14 15 16 17 18 19 20 21 22 23 24 25 26 27 28
000 ASUS41 KBOX 170810 RWRBOX REGIONAL WEATHER ROUNDUP NATIONAL WEATHER SERVICE TAUNTON MA 400 AM EDT THU AUG 17 2017 NOTE: "FAIR" INDICATES FEW OR NO CLOUDS BELOW 12,000 FEET WITH NO SIGNIFICANT WEATHER AND/OR OBSTRUCTIONS TO VISIBILITY. MAZALL-170900- EASTERN MASSACHUSETTS CITY SKY/WX TMP DP RH WIND PRES REMARKS BOSTON CLEAR 65 46 50 NW8 30.04R BEVERLY CLEAR 56 49 77 NW6 30.03R LAWRENCE CLEAR 59 50 72 S5 30.06R BEDFORD CLEAR 53 48 83 CALM 30.03R BLUE HILL N/A 62 44 51 N12 30.04R NORWOOD PTCLDY 56 52 86 CALM 30.03S MARSHFIELD MOCLDY 66 46 48 NW5 30.02R PLYMOUTH PTCLDY 62 47 57 N5 30.03R TAUNTON CLOUDY 54 52 93 CALM 30.03R NEW BEDFORD CLEAR 59 51 75 N3 30.01S $$ MAZALL-170900- CAPE COD AND THE ISLANDS CITY SKY/WX TMP DP RH WIND PRES REMARKS FALMOUTH CLOUDY 61 52 72 N5 30.02S HYANNIS PTCLDY 67 55 65 N9 29.99S CHATHAM PTCLDY 66 56 70 N5 30.01S PROVINCETOWN PTCLDY 66 57 72 N8 30.02S NANTUCKET PTCLDY 64 60 87 N8 30.00S MARTHAS VNYRD CLEAR 62 53 72 N8 30.00S $$ MAZALL-170900- CENTRAL AND WESTERN MASSACHUSETTS CITY SKY/WX TMP DP RH WIND PRES REMARKS WORCESTER CLEAR 61 44 53 N5 30.06R FITCHBURG CLEAR 55 51 86 CALM 30.05S ORANGE CLEAR 52 52 100 CALM 30.06S SPRINGFIELD CLEAR 54 52 95 N5 30.04S WESTFIELD CLEAR 57 56 96 N3 30.05S NORTH ADAMS CLEAR 51 49 92 CALM 30.08S PITTSFIELD FOG 51 50 96 W3 30.07S VSB 1 $$ RIZALL-170900- RHODE ISLAND CITY SKY/WX TMP DP RH WIND PRES REMARKS PROVIDENCE PTCLDY 65 51 60 N7 30.04R NEWPORT MOCLDY 66 51 58 N6 30.02R BLOCK ISLAND MOCLDY 66 57 72 N5 30.03R WESTERLY MOCLDY 65 55 70 N3 30.03R $$ CTZALL-170900- CONNECTICUT CITY SKY/WX TMP DP RH WIND PRES REMARKS BRADLEY INTL PTCLDY 59 56 89 N3 30.04S HARTFORD CLEAR 64 58 80 N6 30.03S BRIDGEPORT CLEAR 69 56 62 N6 30.03S DANBURY CLEAR 60 59 96 CALM 30.06S GROTON CLOUDY 66 57 72 N7 30.01S NEW HAVEN PTCLDY 66 57 72 N6 30.03S CHESTER NOT AVBL MERIDEN CLEAR 62 58 86 CALM 30.03S WILLIMANTIC PTCLDY 59 58 96 N6 30.04S OXFORD PTCLDY 59 55 87 CALM 30.06S $$ MEZ002-015-021-024-NHZ003-005-008-011-012-014-VTZ005-008-170900- NORTHERN NEW ENGLAND CITY SKY/WX TMP DP RH WIND PRES REMARKS PORTLAND ME PTCLDY 51 45 79 W3 30.01S BANGOR ME CLEAR 54 46 74 W7 29.94F CONCORD NH CLEAR 48 45 89 CALM 30.04S MANCHESTER NH CLEAR 57 49 74 N3 30.02S NASHUA NH CLEAR 53 51 93 CALM 30.04R PORTSMOUTH NH CLEAR 56 48 75 W3 30.01R JAFFREY NH CLEAR 51 50 96 CALM 30.06S KEENE NH N/A N/A N/A N/A MISG N/A BURLINGTON VT CLEAR 52 50 93 CALM 30.05S MT. WASHINGTON FOG 37 37 100 NW47G66 N/A VSB 0 WCI 22 $$ NYZ052-076-170900- EASTERN NEW YORK CITY SKY/WX TMP DP RH WIND PRES REMARKS ALBANY PTCLDY 55 52 89 CALM 30.07S NEW YORK CITY MOCLDY 72 60 66 NE6 30.02S $$ ANZALL-170900- MARINE OBSERVATIONS STATION/POSITION TIME TEMP WIND PRES VSBY WAVE AIR SEA DIR/SP/G HT/PER (UTC) (F) (DEG/KT/KT) (MB) (MI) (FT/S) BOSTON BUOY 0750 66 67 330/ 12/ 14 1016.2R 2/14 BUZZARDS BAY 0700 69 20/ 13/ 15 1016.2R NANTUCKET SOUND 0750 71 71 360/ 14/ 16 1015.8R 1/ 3 MASS BAY-STELLWA 0704 65 67 330/ 10/ 12 1015.8R 1 ISLE OF SHOALS 0700 62 310/ 9/ 10 1016.0F S OF BLOCK IS 0743 69 N/A 4/ 9 $$ ......................KEY......................... SKY/WX - SKY CONDITION/PRESENT WEATHER TMP - TEMPERATURE IN FAHRENHEIT DWPT - DEWPOINT IN FAHRENHEIT RH - RELATIVE HUMIDITY IN PERCENT WIND - DIRECTION AND SPEED IN MPH PRES - MEAN SEA LEVEL PRESSURE IN INCHES OF HG WCI - WIND CHILL INDEX VSB - VISIBILITY IN MILES HX - HEAT INDEX TC - TEMPERATURE IN CELSIUS VRB - VARIABLE WIND DIRECTION N/A - NOT AVAILABLE

USA.gov is the U.S. government's official web portal to all federal, state and local government web resources and services.